Leadville, CO

8:44 PM MST on November 20, 2019 (GMT -0700)
Lake County

Weather History for KLXV - September, 2019

Change the Weather History Date:

Sunday, September 29, 2019

  Actual Average Record
Temperature  
Mean Temperature 55 °F -  
Max Temperature 63 °F 56 °F 74 °F (2010)
Min Temperature 46 °F 28 °F 13 °F (1988)
Degree Days  
Heating Degree Days 10 23  
Month to date heating degree days 430 552  
Since 1 July heating degree days 1023 1274  
Cooling Degree Days 0 0  
Month to date cooling degree days 0 0  
Year to date cooling degree days 0 0  
Growing Degree Days 4 (Base 50)    
Moisture  
Dew Point 23 °F    
Average Humidity 33    
Maximum Humidity 46    
Minimum Humidity 19    
Precipitation  
Precipitation T in 0.02 in 0.25 in (2014)
Month to date precipitation 0.31 1.05  
Year to date precipitation 12.85 10.00  
Sea Level Pressure  
Sea Level Pressure 29.51 in    
Wind  
Wind Speed 18 mph (South)    
Max Wind Speed 37 mph    
Max Gust Speed 54 mph    
Visibility 10 miles    
Events Rain    
T = Trace of Precipitation, MM = Missing Value Source: NWS Daily Summary

Daily Weather History Graph

Daily Weather History Graph

Search for Another Location

Airport or City:

Astronomy

Sep. 29, 2019 Rise Set
Actual Time 6:59 AM MDT 6:51 PM MDT
Civil Twilight 6:32 AM MDT 7:17 PM MDT
Nautical Twilight 6:01 AM MDT 7:48 PM MDT
Astronomical Twilight 5:30 AM MDT 8:20 PM MDT
Moon 7:53 AM MDT (9/29) 7:53 PM MDT (9/29)
Length of Visible Light 12h 45m
Length of Day
11h 52m
New Moon, 1% of the Moon is Illuminated
Sep 29
New Moon
Oct 5
First Quarter
Oct 13
Full
Oct 21
Last Quarter
Oct 27
New

Hourly Weather History & Observations

Time (MDT) Temp. Dew Point Humidity Pressure Visibility Wind Dir Wind Speed Gust Speed Precip Events Conditions
12:53 AM 52.0 °F 28.0 °F 40% 29.51 in 10.0 mi South 12.7 mph 27.6 mph N/A   Mostly Cloudy
1:53 AM 52.0 °F 28.9 °F 41% 29.49 in 10.0 mi SSE 12.7 mph 29.9 mph N/A   Overcast
2:53 AM 51.1 °F 28.9 °F 43% 29.47 in 10.0 mi South 19.6 mph 34.5 mph N/A   Mostly Cloudy
3:53 AM 50.0 °F 28.9 °F 44% 29.47 in 10.0 mi SSE 12.7 mph 21.9 mph N/A   Mostly Cloudy
4:53 AM 48.9 °F 28.9 °F 46% 29.47 in 10.0 mi South 9.2 mph - N/A   Overcast
5:53 AM 48.9 °F 27.0 °F 43% 29.49 in 10.0 mi South 12.7 mph 23.0 mph N/A   Mostly Cloudy
6:53 AM 46.9 °F 26.1 °F 44% 29.52 in 10.0 mi SSE 11.5 mph 23.0 mph N/A   Scattered Clouds
7:53 AM 46.9 °F 26.1 °F 44% 29.54 in 10.0 mi South 16.1 mph 25.3 mph N/A   Partly Cloudy
8:53 AM 50.0 °F 24.1 °F 36% 29.55 in 10.0 mi South 20.7 mph 34.5 mph N/A   Clear
9:53 AM 52.0 °F 23.0 °F 32% 29.54 in 10.0 mi South 19.6 mph 31.1 mph N/A   Clear
10:53 AM 55.0 °F 21.0 °F 27% 29.52 in 10.0 mi South 21.9 mph 39.1 mph N/A   Clear
11:53 AM 57.9 °F 24.1 °F 27% 29.50 in 10.0 mi South 24.2 mph 38.0 mph N/A   Clear
12:53 PM 61.0 °F 17.1 °F 18% 29.46 in 10.0 mi SSW 25.3 mph 49.5 mph N/A   Clear
1:53 PM 60.1 °F 19.9 °F 21% 29.48 in 10.0 mi SSW 19.6 mph 49.5 mph N/A   Partly Cloudy
2:53 PM 62.1 °F 19.0 °F 19% 29.46 in 10.0 mi South 18.4 mph 41.4 mph N/A   Partly Cloudy
3:53 PM 61.0 °F 19.0 °F 20% 29.47 in 10.0 mi SSW 24.2 mph 41.4 mph N/A   Partly Cloudy
4:53 PM 59.0 °F 19.0 °F 21% 29.51 in 10.0 mi SSW 18.4 mph 35.7 mph N/A   Partly Cloudy
5:53 PM 55.9 °F 19.9 °F 25% 29.53 in 10.0 mi SSW 16.1 mph 26.5 mph N/A   Scattered Clouds
6:53 PM 54.0 °F 23.0 °F 30% 29.56 in 10.0 mi South 26.5 mph 40.3 mph 0.00 in Rain Light Rain
7:53 PM 54.0 °F 21.9 °F 29% 29.57 in 10.0 mi South 20.7 mph 39.1 mph 0.00 in   Overcast
8:53 PM 53.1 °F 19.0 °F 26% 29.56 in 10.0 mi South 23.0 mph 33.4 mph N/A   Overcast
9:53 PM 53.1 °F 17.1 °F 24% 29.55 in 10.0 mi SSW 20.7 mph 38.0 mph N/A   Clear
10:53 PM 51.1 °F 19.0 °F 28% 29.54 in 10.0 mi South 13.8 mph 28.8 mph N/A   Clear
11:53 PM 50.0 °F 19.9 °F 31% 29.52 in 10.0 mi South 17.3 mph 27.6 mph N/A   Partly Cloudy